Regional Weather Roundup
Issued by NWS

Home | Current Version | Previous Version | Graphics & Text | Print | Product List | Glossary On
Versions: 1 2 3 4 5 6 7 8 9 10 11 12 13 14 15 16 17 18 19 20 21 22 23 24 25 26 27 28 29 30 31 32 33 34 35 36 37 38 39 40 41 42 43 44 45 46 47 48 49 50
000
ASUS45 KSLC 300610
RWRUT

UTAH REGIONAL WEATHER ROUNDUP
NATIONAL WEATHER SERVICE SALT LAKE CITY UT
1200 AM MDT TUE SEP 30 2014

UTZ001>011-023>025-300700-

NORTHERN UTAH

CITY           SKY/WX    TMP DP  RH WIND       PRES   REMARKS
HILL AFB       LGT RAIN  54  45  71 S8        30.01R
LOGAN          NOT AVBL
OGDEN          CLOUDY    54  45  71 S9        29.99S
PROVO AIRPORT  CLOUDY    50  45  81 SE8       30.04S
SALT LAKE CITY MOCLDY    51  47  86 E9        30.00F
VERNAL         CLOUDY    50  45  83 SE6       30.02S
WENDOVER       MOCLDY    55  39  54 NW5       30.01S
HEBER CITY     CLOUDY    45  41  87 CALM      30.05S
WEST JORDAN    CLOUDY    52  48  87 E5        30.02S

$$

UTZ012>022-026-027-300700-

SOUTHERN UTAH

CITY           SKY/WX    TMP DP  RH WIND       PRES   REMARKS
BRYCE CANYON   CLOUDY    45  38  76 CALM      30.15S
CEDAR CITY     CLOUDY    53  40  61 SW6       30.07S
MILFORD        CLOUDY    52  43  71 S5        30.04S
MOAB/CYNLANDS  CLOUDY    52  46  80 NE6       30.01S
PRICE          CLOUDY    50  44  80 NE7       30.06S
ST GEORGE      CLOUDY    64  43  45 E5        29.99S
KANAB          MOCLDY    48  43  81 CALM      30.10S

$$

REGIONAL REPORTS     COLORADO/ARIZONA

CITY           SKY/WX    TMP DP  RH WIND       PRES   REMARKS
CRAIG, CO      CLOUDY    46  39  76 SW14      30.05R
GRAND JUNCTION MOCLDY    47  43  86 SE9       30.07R
RIFLE          CLOUDY    47  43  86 CALM      30.08S
MONTROSE       PTCLDY    42  41  96 SE5       30.12S
CORTEZ         CLEAR     45  42  89 NE6       30.10S
PAGE, AZ       NOT AVBL
GRAND CANYON   CLEAR     38  36  92 CALM      30.14S
KINGMAN        NOT AVBL
FLAGSTAFF      CLEAR     40  33  76 N3        30.15S

$$

REGIONAL REPORTS    NEVADA/IDAHO/WYOMING

CITY           SKY/WX    TMP DP  RH WIND       PRES   REMARKS
LAS VEGAS, NV  CLEAR     73  38  27 SW9       29.89S
ELY            CLOUDY    48  41  76 CALM      30.12R
ELKO           PTCLDY    45  42  89 SW6       30.07S
POCATELLO, ID  CLOUDY    51  50  96 SW9       29.97S
BURLEY         LGT RAIN  50  47  89 W9        29.97S
EVANSTON, WY   CLOUDY    41  37  86 SW10      30.06F
ROCK SPRINGS   PTCLDY    43  39  86 SW14      30.03R

$$


USA.gov is the U.S. government's official web portal to all federal, state and local government web resources and services.